Location: Newark
(46.9000°N, 28.3500°E)
Time: 16:08:19
(UTC+00:00)

Transit 4A - Visible Passes

Search period start: 23 August 2019 00:00
Search period end: 02 September 2019 00:00
Orbit: 863 x 981 km, 66.8° (Epoch: 22 August)

Date Brightness Start Highest point End Pass type
(mag) Time Alt. Az. Time Alt. Az. Time Alt. Az.
23 Aug 7.8 01:10:05 10° NW 01:16:16 67° WSW 01:22:12 10° SSE visible
23 Aug 10.3 18:07:23 10° W 18:12:36 25° NW 18:17:47 10° NNE visible
23 Aug 10.8 19:58:50 10° NNW 20:01:26 12° N 20:04:01 10° NNE visible
23 Aug 10.6 21:47:11 10° NNW 21:50:46 15° NNE 21:54:17 10° NE visible
23 Aug 9.1 23:33:07 10° NNW 23:39:00 40° NE 23:44:41 10° ESE visible
24 Aug 8.1 01:19:36 10° NW 01:25:29 46° WSW 01:31:11 10° S visible
24 Aug 10.5 18:17:41 10° WNW 18:22:22 21° NNW 18:27:01 10° NNE visible
24 Aug 10.8 20:09:09 10° NNW 20:11:26 12° N 20:13:44 10° NNE visible
24 Aug 10.4 21:56:29 10° NNW 22:00:39 18° NNE 22:04:45 10° ENE visible
24 Aug 8.5 23:42:24 10° NNW 23:48:32 54° NE 23:54:26 10° SE visible
25 Aug 8.5 01:29:15 10° NW 01:34:38 32° WSW 01:38:43 15° SSW visible
25 Aug 10.6 18:28:08 10° WNW 18:32:13 17° NNW 18:36:16 10° NNE visible
25 Aug 10.7 20:19:08 10° NNW 20:21:29 12° N 20:23:46 10° NNE visible
25 Aug 10.1 22:05:45 10° NNW 22:10:29 22° NNE 22:15:05 10° E visible
25 Aug 8.0 23:51:44 10° NNW 23:57:59 73° NE 00:01:00 31° SE visible
26 Aug 8.9 01:39:07 10° WNW 01:43:42 22° WSW 01:44:20 22° WSW visible
26 Aug 10.6 18:38:40 10° NW 18:42:08 15° NNW 18:45:34 10° NNE visible
26 Aug 10.6 20:28:49 10° NNW 20:31:29 13° N 20:34:06 10° NE visible
26 Aug 9.7 22:15:00 10° NNW 22:20:13 27° NE 22:24:42 12° E visible
27 Aug 7.7 00:01:07 10° NW 00:07:21 82° WSW 00:08:05 70° S visible
27 Aug 9.5 01:49:27 10° WNW 01:51:28 14° W 01:51:28 14° W visible
27 Aug 10.6 18:49:13 10° NW 18:52:05 13° NNW 18:54:57 10° NNE visible
27 Aug 10.5 20:38:17 10° NNW 20:41:27 14° NNE 20:44:35 10° NE visible
27 Aug 9.3 22:24:15 10° NNW 22:29:54 34° NE 22:32:21 25° E visible
28 Aug 8.1 00:10:33 10° NW 00:15:46 53° W 00:15:46 53° W visible
28 Aug 10.6 18:59:39 10° NNW 19:02:05 12° N 19:04:29 10° NNE visible
28 Aug 10.4 20:47:37 10° NNW 20:51:23 16° NNE 20:55:05 10° ENE visible
28 Aug 8.7 22:33:31 10° NNW 22:39:29 44° NE 22:40:19 42° ENE visible
29 Aug 8.9 00:20:06 10° NW 00:23:46 31° WNW 00:23:46 31° WNW visible
29 Aug 10.4 17:18:30 10° WNW 17:22:57 19° NNW 17:27:22 10° NNE visible
29 Aug 10.6 19:09:52 10° NNW 19:12:06 12° N 19:14:19 10° NNE visible
29 Aug 10.1 20:56:53 10° NNW 21:01:14 19° NNE 21:05:05 11° ENE visible
29 Aug 8.3 22:42:48 10° NNW 22:48:32 58° NNE 22:48:32 58° NNE visible
30 Aug 9.5 00:29:49 10° NW 00:31:59 19° WNW 00:31:59 19° WNW visible
30 Aug 10.4 17:28:59 10° WNW 17:32:49 16° NNW 17:36:38 10° NNE visible
30 Aug 10.5 19:19:44 10° NNW 19:22:07 12° N 19:24:28 10° NNE visible
30 Aug 9.8 21:06:08 10° NNW 21:11:02 23° NNE 21:13:25 19° ENE visible
30 Aug 8.4 22:52:10 10° NNW 22:56:52 53° NNW 22:56:52 53° NNW visible
31 Aug 10.0 00:39:49 10° WNW 00:40:20 12° WNW 00:40:20 12° WNW visible
31 Aug 10.5 17:39:32 10° NW 17:42:45 14° NNW 17:45:57 10° NNE visible
31 Aug 10.4 19:29:19 10° NNW 19:32:07 13° NNE 19:34:53 10° NE visible
31 Aug 9.3 21:15:23 10° NNW 21:20:45 29° NE 21:21:52 27° ENE visible
31 Aug 8.9 23:01:33 10° NW 23:05:20 39° NW 23:05:20 39° NW visible
01 Sep 10.5 17:50:04 10° NW 17:52:44 13° N 17:55:22 10° NNE visible
01 Sep 10.3 19:38:43 10° NNW 19:42:04 15° NNE 19:45:23 10° NE visible
01 Sep 9.0 21:24:38 10° NNW 21:30:24 37° NE 21:30:24 37° NE visible
01 Sep 9.3 23:11:02 10° NW 23:13:53 27° NW 23:13:53 27° NW visible
